Hourly Data Report for October 07, 2016

All times are specified in Local Standard Time (LST). Add 1 hour to adjust for Daylight Saving Time where and when it is observed.

RESOLUTE BAY A
NUNAVUT

74°43'01.000" N
94°58'10.000" W
67.70 m
2403498
71924
YRB

Download Data

Hourly Data (October 2016)
Hourly Data Report for October 7, 2016
Temp Definition
°C
Dew Point Temp Definition
°C
Rel Hum Definition
%
Wind Dir Definition
10's deg

Wind Spd Definition
km/h
Visibility Definition
km
Stn Press Definition
kPa
Hmdx Definition


Wind Chill Definition


Weather Definition


TIME
00:00 Legend Double Dagger -7.3 -9.9 82 33 31 24.1 100.67   -16 Snow
01:00 Legend Double Dagger -7.4 -10.1 81 34 26 24.1 100.70   -16 Snow
02:00 Legend Double Dagger -7.0 -8.7 88 32 19 24.1 100.74   -14 Snow
03:00 Legend Double Dagger -7.8 -10.1 84 32 26 24.1 100.78   -16 Snow
04:00 Legend Double Dagger -8.4 -10.0 88 31 26 24.1 100.83   -17 LegendNANA
05:00 Legend Double Dagger -8.0 -10.1 85 32 16 24.1 100.86   -15 LegendNANA
06:00 Legend Double Dagger -7.0 -9.0 86 29 21 24.1 100.89   -14 Cloudy
07:00 Legend Double Dagger -6.4 -8.4 86 31 27 24.1 100.94   -14 LegendNANA
08:00 Legend Double Dagger -5.8 -6.9 92 29 23 19.3 100.98   -13 Snow
09:00 Legend Double Dagger -5.4 -6.9 89 28 24 24.1 100.98   -13 Cloudy
10:00 Legend Double Dagger -5.2 -6.2 93 26 23 9.7 101.01   -12 Freezing Drizzle
11:00 Legend Double Dagger -5.3 -6.3 93 26 32 9.7 101.03   -14 Freezing Drizzle
12:00 Legend Double Dagger -5.1 -5.9 94 25 27 9.7 101.05   -13 Freezing Drizzle,Fog
13:00 Legend Double Dagger -5.0 -6.0 93 25 31 24.1 101.05   -13 LegendNANA
14:00 Legend Double Dagger -5.4 -6.5 92 27 28 24.1 101.11   -13 LegendNANA
15:00 Legend Double Dagger -5.4 -6.2 94 27 31 16.1 101.13   -14 Freezing Drizzle
16:00 Legend Double Dagger -5.0 -6.1 92 26 23 24.1 101.16   -12 LegendNANA
17:00 Legend Double Dagger -4.8 -6.1 91 26 25 24.1 101.15   -12 LegendNANA
18:00 Legend Double Dagger -4.8 -5.8 93 24 21 24.1 101.14   -11 Cloudy
19:00 Legend Double Dagger -4.9 -5.7 94 26 21 24.1 101.13   -12 LegendNANA
20:00 Legend Double Dagger -4.8 -6.2 90 23 21 24.1 101.09   -11 LegendNANA
21:00 Legend Double Dagger -4.9 -6.2 91 23 21 24.1 101.06   -12 Cloudy
22:00 Legend Double Dagger -4.6 -5.7 92 25 18 24.1 101.01   -11 Snow
23:00 Legend Double Dagger -4.8 -5.9 92 24 23 24.1 100.97   -12 Snow

Notes on Data Quality.

Legend

  • E = Estimated
  • M = Missing
  • NA = Not Available
  • ‡ = Partner data that is not subject to review by the National Climate Archives
Date modified: